Selinsgrove, PA

7:07 PM EDT on April 26, 2017 (GMT -0400)
Penn Valley

Weather History for KSEG - December, 2012

Change the Weather History Date:

Monday, December 31, 2012

  Actual Average (KIPT) Record (KIPT)
Temperature  
Mean Temperature 29 °F -  
Max Temperature 39 °F 34 °F 62 °F (1972)
Min Temperature 19 °F 20 °F -8 °F (1917)
Degree Days  
Heating Degree Days 36    
Moisture  
Dew Point 20 °F    
Average Humidity 66    
Maximum Humidity 81    
Minimum Humidity 52    
Precipitation  
Precipitation 0.30 in - - ()
Sea Level Pressure  
Sea Level Pressure 30.12 in    
Wind  
Wind Speed 3 mph (SW)    
Max Wind Speed 7 mph    
Max Gust Speed -    
Visibility 10 miles    
Events      
Averages and records for this station are not official NWS values.
T = Trace of Precipitation, MM = Missing Value Source: NWS Daily Summary

Daily Weather History Graph

Daily Weather History Graph

Search for Another Location

Airport or City:

Trip Planner

Search our weather history database for the weather conditions in past years. The results will help you decide how hot, cold, wet, or windy it might be!

Date:

Astronomy

Dec. 31, 2012 Rise Set
Actual Time 7:31 AM EST 4:49 PM EST
Civil Twilight 7:00 AM EST 5:20 PM EST
Nautical Twilight 6:26 AM EST 5:55 PM EST
Astronomical Twilight 5:53 AM EST 6:28 PM EST
Moon 8:19 PM EST (12/31) 9:10 AM EST (12/31)
Length of Visible Light 10h 19m
Length of Day
9h 18m
Waning Gibbous, 90% of the Moon is Illuminated
Dec 31
Waning Gibbous
Jan 4
Last Quarter
Jan 11
New
Jan 18
First Quarter
Jan 26
Full

Hourly Weather History & Observations

Time (EST) Temp. Windchill Dew Point Humidity Pressure Visibility Wind Dir Wind Speed Gust Speed Precip Events Conditions
12:53 AM 28.9 °F 25.2 °F 19.0 °F 67% 30.27 in 10.0 mi Variable 3.5 mph - N/A   Overcast
1:53 AM 28.0 °F 24.2 °F 17.1 °F 63% 30.26 in 10.0 mi Variable 3.5 mph - N/A   Clear
2:53 AM 27.0 °F - 16.0 °F 63% 30.25 in 10.0 mi Calm Calm - N/A   Partly Cloudy
3:53 AM 21.9 °F - 16.0 °F 78% 30.25 in 10.0 mi Calm Calm - N/A   Mostly Cloudy
4:53 AM 19.9 °F - 15.1 °F 81% 30.22 in 10.0 mi Calm Calm - N/A   Mostly Cloudy
5:53 AM 24.1 °F 18.2 °F 17.1 °F 75% 30.22 in 10.0 mi South 4.6 mph - N/A   Scattered Clouds
6:53 AM 21.9 °F 15.7 °F 16.0 °F 78% 30.23 in 6.0 mi SW 4.6 mph - N/A   Haze
7:53 AM 23.0 °F 18.4 °F 16.0 °F 74% 30.23 in 10.0 mi SSW 3.5 mph - N/A   Clear
8:53 AM 24.1 °F 19.7 °F 17.1 °F 75% 30.23 in 10.0 mi SSW 3.5 mph - N/A   Clear
9:53 AM 27.0 °F - 18.0 °F 69% 30.23 in 10.0 mi Calm Calm - N/A   Clear
10:53 AM 28.0 °F 21.7 °F 18.0 °F 66% 30.21 in 10.0 mi South 5.8 mph - 0.01 in   Clear
11:53 AM 30.0 °F 23.2 °F 19.0 °F 64% 30.15 in 10.0 mi South 6.9 mph - 0.01 in   Clear
12:53 PM 32.0 °F 27.5 °F 19.0 °F 59% 30.10 in 10.0 mi SSW 4.6 mph - 0.04 in   Clear
1:53 PM 33.1 °F 26.9 °F 19.9 °F 59% 30.06 in 10.0 mi SSW 6.9 mph - 0.03 in   Clear
2:53 PM 35.1 °F 29.3 °F 19.9 °F 54% 30.02 in 10.0 mi South 6.9 mph - 0.03 in   Clear
3:53 PM 36.0 °F 32.1 °F 19.9 °F 52% 30.01 in 10.0 mi SW 4.6 mph - 0.03 in   Clear
4:53 PM 34.0 °F - 19.9 °F 56% 30.00 in 10.0 mi Calm Calm - 0.01 in   Clear
5:53 PM 35.1 °F - 21.0 °F 57% 29.98 in 10.0 mi Calm Calm - 0.02 in   Overcast
7:53 PM 35.1 °F 32.2 °F 21.0 °F 57% 29.97 in 10.0 mi SW 3.5 mph - 0.01 in   Overcast
8:53 PM 35.1 °F - 23.0 °F 61% 29.95 in 10.0 mi Calm Calm - 0.02 in   Overcast
9:53 PM 37.9 °F 34.4 °F 28.0 °F 68% 29.94 in 10.0 mi West 4.6 mph - 0.02 in   Overcast
10:53 PM 39.0 °F 34.0 °F 28.9 °F 67% 29.96 in 10.0 mi Variable 6.9 mph - 0.04 in   Overcast
11:53 PM 39.0 °F 34.0 °F 28.0 °F 65% 29.95 in 10.0 mi West 6.9 mph - 0.03 in   Overcast